contact:dominique.lefevre@mio.osupytheas.fr, maurice.libes@osupytheas.fr, didier.mallarino@osupytheas.fr
Project:EMSO http://www.emso-fr.org/EMSO-France
Depth: 2436.0 m
Title:EMSO Ligure Ouest : Data MII capteur MICROCAT
DateTime_Computer,Latitude,Longitude,Temperature,Conductivity,Pressure,DateTime_Instrument
DateTime_Computer,Latitude,Longitude,degC,S m-1,dbar,DateTime_Instrument
2021-06-02T00:02:06Z,42.805,6.029,13.3027,4.60019,2470.413,2021-6-02T02:03:18Z
2021-06-02T00:05:09Z,42.805,6.029,13.3028,4.60020,2470.413,2021-6-02T02:06:22Z
2021-06-02T00:08:12Z,42.805,6.029,13.3024,4.60026,2470.39,2021-6-02T02:09:25Z
2021-06-02T00:11:15Z,42.805,6.029,13.3024,4.60022,2470.39,2021-6-02T02:12:28Z
2021-06-02T00:14:18Z,42.805,6.029,13.3026,4.60028,2470.45,2021-6-02T02:15:31Z
2021-06-02T00:17:22Z,42.805,6.029,13.3024,4.60029,2470.413,2021-6-02T02:18:34Z
2021-06-02T00:20:25Z,42.805,6.029,13.3029,4.60033,2470.39,2021-6-02T02:21:37Z
2021-06-02T00:23:28Z,42.805,6.029,13.3026,4.60026,2470.413,2021-6-02T02:24:40Z
2021-06-02T00:26:31Z,42.805,6.029,13.3024,4.60029,2470.45,2021-6-02T02:27:43Z
2021-06-02T00:29:34Z,42.805,6.029,13.3022,4.60031,2470.413,2021-6-02T02:30:47Z
2021-06-02T00:32:37Z,42.805,6.029,13.3021,4.60021,2470.437,2021-6-02T02:33:50Z
2021-06-02T00:35:40Z,42.805,6.029,13.3019,4.60036,2470.427,2021-6-02T02:36:53Z
2021-06-02T00:38:43Z,42.805,6.029,13.3022,4.60033,2470.45,2021-6-02T02:39:56Z
2021-06-02T00:41:47Z,42.805,6.029,13.3031,4.60024,2470.427,2021-6-02T02:42:59Z
2021-06-02T00:44:50Z,42.805,6.029,13.3017,4.60025,2470.437,2021-6-02T02:46:02Z
2021-06-02T00:47:53Z,42.805,6.029,13.3032,4.60026,2470.46,2021-6-02T02:49:05Z
2021-06-02T00:50:56Z,42.805,6.029,13.3027,4.60029,2470.46,2021-6-02T02:52:08Z
2021-06-02T00:53:59Z,42.805,6.029,13.3032,4.60036,2470.45,2021-6-02T02:55:11Z
2021-06-02T00:57:02Z,42.805,6.029,13.3026,4.60052,2470.46,2021-6-02T02:58:15Z
2021-06-02T01:00:05Z,42.805,6.029,13.3035,4.60035,2470.45,2021-6-02T03:01:18Z
2021-06-02T01:03:08Z,42.805,6.029,13.3029,4.60035,2470.474,2021-6-02T03:04:21Z
2021-06-02T01:06:11Z,42.805,6.029,13.3029,4.60021,2470.437,2021-6-02T03:07:24Z
2021-06-02T01:09:15Z,42.805,6.029,13.3024,4.60029,2470.45,2021-6-02T03:10:27Z
2021-06-02T01:12:18Z,42.805,6.029,13.3024,4.60023,2470.45,2021-6-02T03:13:30Z
2021-06-02T01:15:21Z,42.805,6.029,13.3034,4.60027,2470.46,2021-6-02T03:16:33Z
2021-06-02T01:18:24Z,42.805,6.029,13.3021,4.60029,2470.437,2021-6-02T03:19:36Z
2021-06-02T01:21:27Z,42.805,6.029,13.3042,4.60037,2470.437,2021-6-02T03:22:40Z
2021-06-02T01:24:30Z,42.805,6.029,13.3029,4.60031,2470.413,2021-6-02T03:25:43Z
2021-06-02T01:27:33Z,42.805,6.029,13.3028,4.60029,2470.474,2021-6-02T03:28:46Z
2021-06-02T01:30:36Z,42.805,6.029,13.2998,4.60027,2470.437,2021-6-02T03:31:49Z
2021-06-02T01:33:40Z,42.805,6.029,13.3040,4.60040,2470.413,2021-6-02T03:34:52Z
2021-06-02T01:36:43Z,42.805,6.029,13.3031,4.60035,2470.437,2021-6-02T03:37:55Z
2021-06-02T01:39:46Z,42.805,6.029,13.3036,4.60027,2470.45,2021-6-02T03:40:58Z
2021-06-02T01:42:49Z,42.805,6.029,13.3029,4.60028,2470.45,2021-6-02T03:44:01Z
2021-06-02T01:45:52Z,42.805,6.029,13.3032,4.60016,2470.437,2021-6-02T03:47:04Z
2021-06-02T01:48:55Z,42.805,6.029,13.3016,4.60024,2470.437,2021-6-02T03:50:08Z
2021-06-02T01:51:58Z,42.805,6.029,13.3037,4.60055,2470.45,2021-6-02T03:53:11Z
2021-06-02T01:55:01Z,42.805,6.029,13.3030,4.60034,2470.483,2021-6-02T03:56:14Z
2021-06-02T01:58:04Z,42.805,6.029,13.3027,4.60053,2470.437,2021-6-02T03:59:17Z
2021-06-02T02:01:08Z,42.805,6.029,13.3036,4.60038,2470.437,2021-6-02T04:02:20Z
2021-06-02T02:04:11Z,42.805,6.029,13.3031,4.60042,2470.437,2021-6-02T04:05:23Z
2021-06-02T02:07:14Z,42.805,6.029,13.3056,4.60043,2470.437,2021-6-02T04:08:26Z
2021-06-02T02:10:17Z,42.805,6.029,13.3035,4.60040,2470.437,2021-6-02T04:11:29Z
2021-06-02T02:13:20Z,42.805,6.029,13.3026,4.60042,2470.46,2021-6-02T04:14:33Z
2021-06-02T02:16:23Z,42.805,6.029,13.2998,4.60031,2470.46,2021-6-02T04:17:36Z
2021-06-02T02:19:26Z,42.805,6.029,13.3011,4.60057,2470.437,2021-6-02T04:20:39Z
2021-06-02T02:22:29Z,42.805,6.029,13.3033,4.60072,2470.474,2021-6-02T04:23:42Z
2021-06-02T02:25:33Z,42.805,6.029,13.3002,4.60049,2470.437,2021-6-02T04:26:45Z
2021-06-02T02:28:36Z,42.805,6.029,13.2990,4.60029,2470.45,2021-6-02T04:29:48Z
2021-06-02T02:31:39Z,42.805,6.029,13.2992,4.60023,2470.474,2021-6-02T04:32:51Z
2021-06-02T02:34:42Z,42.805,6.029,13.3021,4.60037,2470.474,2021-6-02T04:35:54Z
2021-06-02T02:37:45Z,42.805,6.029,13.2986,4.60029,2470.45,2021-6-02T04:38:57Z
2021-06-02T02:40:48Z,42.805,6.029,13.2990,4.60019,2470.437,2021-6-02T04:42:01Z
2021-06-02T02:43:51Z,42.805,6.029,13.2991,4.60021,2470.437,2021-6-02T04:45:04Z
2021-06-02T02:46:54Z,42.805,6.029,13.3004,4.60027,2470.427,2021-6-02T04:48:07Z
2021-06-02T02:49:58Z,42.805,6.029,13.2996,4.60029,2470.39,2021-6-02T04:51:10Z
2021-06-02T02:53:01Z,42.805,6.029,13.2990,4.60020,2470.474,2021-6-02T04:54:13Z
2021-06-02T02:56:04Z,42.805,6.029,13.2992,4.60022,2470.437,2021-6-02T04:57:16Z
2021-06-02T02:59:07Z,42.805,6.029,13.2986,4.60016,2470.427,2021-6-02T05:00:19Z
2021-06-02T03:02:10Z,42.805,6.029,13.3007,4.60037,2470.437,2021-6-02T05:03:22Z
2021-06-02T03:05:13Z,42.805,6.029,13.3005,4.60025,2470.46,2021-6-02T05:06:26Z
2021-06-02T03:08:16Z,42.805,6.029,13.3053,4.60029,2470.45,2021-6-02T05:09:29Z
2021-06-02T03:11:19Z,42.805,6.029,13.3010,4.60027,2470.45,2021-6-02T05:12:32Z
2021-06-02T03:14:22Z,42.805,6.029,13.2991,4.60038,2470.474,2021-6-02T05:15:35Z
2021-06-02T03:17:26Z,42.805,6.029,13.2985,4.60026,2470.46,2021-6-02T05:18:38Z
2021-06-02T03:20:29Z,42.805,6.029,13.2996,4.60019,2470.427,2021-6-02T05:21:41Z
2021-06-02T03:23:32Z,42.805,6.029,13.3003,4.60027,2470.413,2021-6-02T05:24:44Z
2021-06-02T03:26:35Z,42.805,6.029,13.2988,4.60028,2470.437,2021-6-02T05:27:47Z
2021-06-02T03:29:38Z,42.805,6.029,13.2990,4.60029,2470.45,2021-6-02T05:30:50Z
2021-06-02T03:32:41Z,42.805,6.029,13.2994,4.60022,2470.404,2021-6-02T05:33:54Z
2021-06-02T03:35:44Z,42.805,6.029,13.2990,4.60040,2470.437,2021-6-02T05:36:57Z
2021-06-02T03:38:47Z,42.805,6.029,13.2993,4.60028,2470.427,2021-6-02T05:40:00Z
2021-06-02T03:41:51Z,42.805,6.029,13.2989,4.60036,2470.437,2021-6-02T05:43:03Z
2021-06-02T03:44:54Z,42.805,6.029,13.2986,4.60023,2470.427,2021-6-02T05:46:06Z
2021-06-02T03:47:57Z,42.805,6.029,13.2990,4.60022,2470.45,2021-6-02T05:49:09Z
2021-06-02T03:51:00Z,42.805,6.029,13.2992,4.60019,2470.45,2021-6-02T05:52:12Z
2021-06-02T03:54:03Z,42.805,6.029,13.3002,4.60017,2470.45,2021-6-02T05:55:15Z
2021-06-02T03:57:06Z,42.805,6.029,13.2995,4.60024,2470.413,2021-6-02T05:58:19Z
2021-06-02T04:00:09Z,42.805,6.029,13.2996,4.60063,2470.437,2021-6-02T06:01:22Z
2021-06-02T04:03:12Z,42.805,6.029,13.3029,4.60033,2470.413,2021-6-02T06:04:25Z
2021-06-02T04:06:15Z,42.805,6.029,13.2992,4.60041,2470.45,2021-6-02T06:07:28Z
2021-06-02T04:09:19Z,42.805,6.029,13.2989,4.60032,2470.427,2021-6-02T06:10:31Z
2021-06-02T04:12:22Z,42.805,6.029,13.2987,4.60020,2470.427,2021-6-02T06:13:34Z
2021-06-02T04:15:25Z,42.805,6.029,13.2993,4.60021,2470.45,2021-6-02T06:16:37Z
2021-06-02T04:18:28Z,42.805,6.029,13.2998,4.60036,2470.413,2021-6-02T06:19:40Z
2021-06-02T04:21:31Z,42.805,6.029,13.2991,4.60033,2470.413,2021-6-02T06:22:44Z
2021-06-02T04:24:34Z,42.805,6.029,13.2986,4.60022,2470.413,2021-6-02T06:25:47Z
2021-06-02T04:27:37Z,42.805,6.029,13.2991,4.60015,2470.413,2021-6-02T06:28:50Z
2021-06-02T04:30:40Z,42.805,6.029,13.2991,4.60017,2470.437,2021-6-02T06:31:53Z
2021-06-02T04:33:44Z,42.805,6.029,13.2990,4.60022,2470.437,2021-6-02T06:34:56Z
2021-06-02T04:36:47Z,42.805,6.029,13.2992,4.60020,2470.413,2021-6-02T06:37:59Z
2021-06-02T04:39:50Z,42.805,6.029,13.2994,4.60015,2470.413,2021-6-02T06:41:02Z
2021-06-02T04:42:53Z,42.805,6.029,13.2993,4.60034,2470.427,2021-6-02T06:44:05Z
2021-06-02T04:45:56Z,42.805,6.029,13.2988,4.60019,2470.45,2021-6-02T06:47:08Z
2021-06-02T04:48:59Z,42.805,6.029,13.2988,4.60015,2470.413,2021-6-02T06:50:12Z
2021-06-02T04:52:02Z,42.805,6.029,13.2990,4.60021,2470.45,2021-6-02T06:53:15Z
2021-06-02T04:55:05Z,42.805,6.029,13.2987,4.60021,2470.413,2021-6-02T06:56:18Z
2021-06-02T04:58:08Z,42.805,6.029,13.2986,4.60015,2470.404,2021-6-02T06:59:21Z
2021-06-02T05:01:12Z,42.805,6.029,13.2987,4.60020,2470.427,2021-6-02T07:02:24Z
2021-06-02T05:04:15Z,42.805,6.029,13.2984,4.60016,2470.39,2021-6-02T07:05:27Z
2021-06-02T05:07:18Z,42.805,6.029,13.2990,4.60020,2470.427,2021-6-02T07:08:30Z
2021-06-02T05:10:21Z,42.805,6.029,13.2987,4.60011,2470.404,2021-6-02T07:11:33Z
2021-06-02T05:13:24Z,42.805,6.029,13.2987,4.60009,2470.413,2021-6-02T07:14:37Z
2021-06-02T05:16:27Z,42.805,6.029,13.2983,4.60002,2470.45,2021-6-02T07:17:40Z
2021-06-02T05:19:30Z,42.805,6.029,13.2986,4.60005,2470.404,2021-6-02T07:20:43Z
2021-06-02T05:22:33Z,42.805,6.029,13.2990,4.60003,2470.404,2021-6-02T07:23:46Z
2021-06-02T05:25:37Z,42.805,6.029,13.2986,4.60006,2470.39,2021-6-02T07:26:49Z
2021-06-02T05:28:40Z,42.805,6.029,13.2986,4.60010,2470.404,2021-6-02T07:29:52Z
2021-06-02T05:31:43Z,42.805,6.029,13.2986,4.60007,2470.366,2021-6-02T07:32:55Z
2021-06-02T05:34:46Z,42.805,6.029,13.2987,4.60009,2470.39,2021-6-02T07:35:58Z
2021-06-02T05:37:49Z,42.805,6.029,13.2986,4.60011,2470.38,2021-6-02T07:39:01Z
2021-06-02T05:40:52Z,42.805,6.029,13.2985,4.60011,2470.38,2021-6-02T07:42:05Z
2021-06-02T05:43:55Z,42.805,6.029,13.2984,4.60008,2470.39,2021-6-02T07:45:08Z
2021-06-02T05:46:58Z,42.805,6.029,13.2986,4.60011,2470.39,2021-6-02T07:48:11Z
2021-06-02T05:50:01Z,42.805,6.029,13.2988,4.60006,2470.38,2021-6-02T07:51:14Z
2021-06-02T05:53:05Z,42.805,6.029,13.2989,4.60003,2470.39,2021-6-02T07:54:17Z
2021-06-02T05:56:08Z,42.805,6.029,13.2985,4.60001,2470.366,2021-6-02T07:57:20Z
2021-06-02T05:59:11Z,42.805,6.029,13.2985,4.60003,2470.38,2021-6-02T08:00:23Z
2021-06-02T06:02:14Z,42.805,6.029,13.2982,4.60006,2470.366,2021-6-02T08:03:26Z
2021-06-02T06:05:17Z,42.805,6.029,13.2986,4.60003,2470.38,2021-6-02T08:06:30Z
2021-06-02T06:08:20Z,42.805,6.029,13.2987,4.60002,2470.366,2021-6-02T08:09:33Z
2021-06-02T06:11:23Z,42.805,6.029,13.2989,4.60002,2470.39,2021-6-02T08:12:36Z
2021-06-02T06:14:26Z,42.805,6.029,13.2989,4.60003,2470.366,2021-6-02T08:15:39Z
2021-06-02T06:17:30Z,42.805,6.029,13.2984,4.60003,2470.38,2021-6-02T08:18:42Z
2021-06-02T06:20:33Z,42.805,6.029,13.2991,4.60009,2470.357,2021-6-02T08:21:45Z
2021-06-02T06:23:36Z,42.805,6.029,13.2984,4.60005,2470.38,2021-6-02T08:24:48Z
2021-06-02T06:26:39Z,42.805,6.029,13.2985,4.60002,2470.38,2021-6-02T08:27:51Z
2021-06-02T06:29:42Z,42.805,6.029,13.2986,4.59999,2470.366,2021-6-02T08:30:55Z
2021-06-02T06:32:45Z,42.805,6.029,13.2986,4.60006,2470.39,2021-6-02T08:33:58Z
2021-06-02T06:35:48Z,42.805,6.029,13.2987,4.60010,2470.366,2021-6-02T08:37:01Z
2021-06-02T06:38:51Z,42.805,6.029,13.2989,4.60010,2470.366,2021-6-02T08:40:04Z
2021-06-02T06:41:54Z,42.805,6.029,13.2986,4.60010,2470.343,2021-6-02T08:43:07Z
2021-06-02T06:44:58Z,42.805,6.029,13.2986,4.60014,2470.334,2021-6-02T08:46:10Z
2021-06-02T06:48:01Z,42.805,6.029,13.2988,4.60006,2470.343,2021-6-02T08:49:13Z
2021-06-02T06:51:04Z,42.805,6.029,13.2986,4.60009,2470.33,2021-6-02T08:52:16Z
2021-06-02T06:54:07Z,42.805,6.029,13.2985,4.60010,2470.343,2021-6-02T08:55:19Z
2021-06-02T06:57:10Z,42.805,6.029,13.2988,4.60009,2470.38,2021-6-02T08:58:23Z
2021-06-02T07:00:13Z,42.805,6.029,13.2988,4.60015,2470.38,2021-6-02T09:01:26Z
2021-06-02T07:03:16Z,42.805,6.029,13.2989,4.60016,2470.366,2021-6-02T09:04:29Z
2021-06-02T07:06:19Z,42.805,6.029,13.2986,4.60015,2470.357,2021-6-02T09:07:32Z
2021-06-02T07:09:23Z,42.805,6.029,13.2983,4.60012,2470.343,2021-6-02T09:10:35Z
2021-06-02T07:12:26Z,42.805,6.029,13.2986,4.60011,2470.343,2021-6-02T09:13:38Z
2021-06-02T07:15:29Z,42.805,6.029,13.2987,4.60014,2470.357,2021-6-02T09:16:41Z
2021-06-02T07:18:32Z,42.805,6.029,13.2987,4.60009,2470.343,2021-6-02T09:19:44Z
2021-06-02T07:21:35Z,42.805,6.029,13.2986,4.60019,2470.334,2021-6-02T09:22:47Z
2021-06-02T07:24:38Z,42.805,6.029,13.2991,4.60014,2470.357,2021-6-02T09:25:51Z
2021-06-02T07:27:41Z,42.805,6.029,13.2990,4.60011,2470.343,2021-6-02T09:28:54Z
2021-06-02T07:30:44Z,42.805,6.029,13.2986,4.60011,2470.38,2021-6-02T09:31:57Z
2021-06-02T07:33:47Z,42.805,6.029,13.2986,4.60017,2470.38,2021-6-02T09:35:00Z
2021-06-02T07:36:51Z,42.805,6.029,13.2987,4.60006,2470.357,2021-6-02T09:38:03Z
2021-06-02T07:39:54Z,42.805,6.029,13.2990,4.60009,2470.38,2021-6-02T09:41:06Z
2021-06-02T07:42:57Z,42.805,6.029,13.2986,4.60012,2470.343,2021-6-02T09:44:09Z
2021-06-02T07:46:00Z,42.805,6.029,13.2987,4.60004,2470.32,2021-6-02T09:47:12Z
2021-06-02T07:49:03Z,42.805,6.029,13.2988,4.60011,2470.357,2021-6-02T09:50:16Z
2021-06-02T07:52:06Z,42.805,6.029,13.2986,4.60017,2470.343,2021-6-02T09:53:19Z
2021-06-02T07:55:09Z,42.805,6.029,13.2984,4.60013,2470.32,2021-6-02T09:56:22Z
2021-06-02T07:58:12Z,42.805,6.029,13.2990,4.60014,2470.32,2021-6-02T09:59:25Z
2021-06-02T08:01:16Z,42.805,6.029,13.2986,4.60004,2470.334,2021-6-02T10:02:28Z
2021-06-02T08:04:19Z,42.805,6.029,13.2990,4.60010,2470.31,2021-6-02T10:05:31Z
2021-06-02T08:07:22Z,42.805,6.029,13.2985,4.60011,2470.334,2021-6-02T10:08:34Z
2021-06-02T08:10:25Z,42.805,6.029,13.2986,4.60019,2470.343,2021-6-02T10:11:37Z
2021-06-02T08:13:28Z,42.805,6.029,13.2988,4.60021,2470.32,2021-6-02T10:14:40Z
2021-06-02T08:16:31Z,42.805,6.029,13.2985,4.60030,2470.357,2021-6-02T10:17:44Z
2021-06-02T08:19:34Z,42.805,6.029,13.2988,4.60020,2470.32,2021-6-02T10:20:47Z
2021-06-02T08:22:37Z,42.805,6.029,13.2985,4.60017,2470.343,2021-6-02T10:23:50Z
2021-06-02T08:25:40Z,42.805,6.029,13.2985,4.60018,2470.343,2021-6-02T10:26:53Z
2021-06-02T08:28:44Z,42.805,6.029,13.2986,4.60019,2470.32,2021-6-02T10:29:56Z
2021-06-02T08:31:47Z,42.805,6.029,13.2988,4.60029,2470.32,2021-6-02T10:32:59Z
2021-06-02T08:34:50Z,42.805,6.029,13.2986,4.60041,2470.357,2021-6-02T10:36:02Z
2021-06-02T08:37:53Z,42.805,6.029,13.2987,4.60040,2470.357,2021-6-02T10:39:05Z
2021-06-02T08:40:56Z,42.805,6.029,13.2992,4.60026,2470.38,2021-6-02T10:42:09Z
2021-06-02T08:43:59Z,42.805,6.029,13.2991,4.60032,2470.38,2021-6-02T10:45:12Z
2021-06-02T08:47:02Z,42.805,6.029,13.2990,4.60079,2470.32,2021-6-02T10:48:15Z
2021-06-02T08:50:05Z,42.805,6.029,13.2990,4.60081,2470.334,2021-6-02T10:51:18Z
2021-06-02T08:53:09Z,42.805,6.029,13.2988,4.60052,2470.357,2021-6-02T10:54:21Z
2021-06-02T08:56:12Z,42.805,6.029,13.2988,4.60060,2470.357,2021-6-02T10:57:24Z
2021-06-02T08:59:15Z,42.805,6.029,13.2993,4.60049,2470.32,2021-6-02T11:00:27Z
2021-06-02T09:02:18Z,42.805,6.029,13.2986,4.60070,2470.343,2021-6-02T11:03:30Z
2021-06-02T09:05:21Z,42.805,6.029,13.2991,4.60092,2470.334,2021-6-02T11:06:34Z
2021-06-02T09:08:24Z,42.805,6.029,13.2986,4.60031,2470.38,2021-6-02T11:09:37Z
2021-06-02T09:11:27Z,42.805,6.029,13.2988,4.60047,2470.32,2021-6-02T11:12:40Z
2021-06-02T09:14:30Z,42.805,6.029,13.2990,4.60052,2470.334,2021-6-02T11:15:43Z
2021-06-02T09:17:34Z,42.805,6.029,13.2990,4.60032,2470.343,2021-6-02T11:18:46Z
2021-06-02T09:20:37Z,42.805,6.029,13.2989,4.60042,2470.357,2021-6-02T11:21:49Z
2021-06-02T09:23:40Z,42.805,6.029,13.2990,4.60052,2470.366,2021-6-02T11:24:52Z
2021-06-02T09:26:43Z,42.805,6.029,13.2991,4.60021,2470.334,2021-6-02T11:27:55Z
2021-06-02T09:29:46Z,42.805,6.029,13.2986,4.60010,2470.334,2021-6-02T11:30:59Z
2021-06-02T09:32:49Z,42.805,6.029,13.2991,4.60021,2470.38,2021-6-02T11:34:02Z
2021-06-02T09:35:52Z,42.805,6.029,13.2987,4.60023,2470.343,2021-6-02T11:37:05Z
2021-06-02T09:38:55Z,42.805,6.029,13.2991,4.60029,2470.366,2021-6-02T11:40:08Z
2021-06-02T09:41:59Z,42.805,6.029,13.2985,4.60026,2470.39,2021-6-02T11:43:11Z
2021-06-02T09:45:02Z,42.805,6.029,13.2988,4.60036,2470.343,2021-6-02T11:46:14Z
2021-06-02T09:48:05Z,42.805,6.029,13.2987,4.60032,2470.343,2021-6-02T11:49:17Z
2021-06-02T09:51:08Z,42.805,6.029,13.2986,4.60023,2470.357,2021-6-02T11:52:20Z
2021-06-02T09:54:11Z,42.805,6.029,13.2985,4.60016,2470.32,2021-6-02T11:55:24Z
2021-06-02T09:57:14Z,42.805,6.029,13.2989,4.60020,2470.357,2021-6-02T11:58:27Z
2021-06-02T10:00:17Z,42.805,6.029,13.2986,4.60018,2470.343,2021-6-02T12:01:30Z
2021-06-02T10:03:20Z,42.805,6.029,13.2990,4.60029,2470.343,2021-6-02T12:04:33Z
2021-06-02T10:06:24Z,42.805,6.029,13.2987,4.60049,2470.343,2021-6-02T12:07:36Z
2021-06-02T10:09:27Z,42.805,6.029,13.2988,4.60091,2470.357,2021-6-02T12:10:39Z
2021-06-02T10:12:30Z,42.805,6.029,13.2989,4.60081,2470.334,2021-6-02T12:13:42Z
2021-06-02T10:15:33Z,42.805,6.029,13.3003,4.60094,2470.357,2021-6-02T12:16:45Z
2021-06-02T10:18:36Z,42.805,6.029,13.3026,4.60079,2470.343,2021-6-02T12:19:49Z
2021-06-02T10:21:39Z,42.805,6.029,13.3052,4.60067,2470.366,2021-6-02T12:22:52Z
2021-06-02T10:24:42Z,42.805,6.029,13.3069,4.60064,2470.357,2021-6-02T12:25:55Z
2021-06-02T10:27:45Z,42.805,6.029,13.3054,4.60046,2470.357,2021-6-02T12:28:58Z
2021-06-02T10:30:49Z,42.805,6.029,13.3056,4.60052,2470.366,2021-6-02T12:32:01Z
2021-06-02T10:33:52Z,42.805,6.029,13.3062,4.60029,2470.366,2021-6-02T12:35:04Z
2021-06-02T10:36:55Z,42.805,6.029,13.3065,4.60027,2470.343,2021-6-02T12:38:07Z
2021-06-02T10:39:58Z,42.805,6.029,13.3045,4.60056,2470.38,2021-6-02T12:41:10Z
2021-06-02T10:43:01Z,42.805,6.029,13.3046,4.60024,2470.357,2021-6-02T12:44:14Z
2021-06-02T10:46:04Z,42.805,6.029,13.3050,4.60041,2470.357,2021-6-02T12:47:17Z
2021-06-02T10:49:07Z,42.805,6.029,13.3063,4.60040,2470.394,2021-6-02T12:50:20Z
2021-06-02T10:52:10Z,42.805,6.029,13.3065,4.60038,2470.334,2021-6-02T12:53:23Z
2021-06-02T10:55:14Z,42.805,6.029,13.3073,4.60058,2470.38,2021-6-02T12:56:26Z
2021-06-02T10:58:17Z,42.805,6.029,13.3063,4.60058,2470.38,2021-6-02T12:59:29Z
2021-06-02T11:01:20Z,42.805,6.029,13.3063,4.60044,2470.404,2021-6-02T13:02:32Z
2021-06-02T11:04:23Z,42.805,6.029,13.3055,4.60037,2470.399,2021-6-02T13:05:35Z
2021-06-02T11:07:26Z,42.805,6.029,13.3069,4.60046,2470.39,2021-6-02T13:08:38Z
2021-06-02T11:10:29Z,42.805,6.029,13.3049,4.60023,2470.404,2021-6-02T13:11:42Z
2021-06-02T11:13:32Z,42.805,6.029,13.3046,4.60019,2470.39,2021-6-02T13:14:45Z
2021-06-02T11:16:35Z,42.805,6.029,13.3081,4.60030,2470.413,2021-6-02T13:17:48Z
2021-06-02T11:19:39Z,42.805,6.029,13.3061,4.60019,2470.413,2021-6-02T13:20:51Z
2021-06-02T11:22:42Z,42.805,6.029,13.3056,4.60035,2470.417,2021-6-02T13:23:54Z
2021-06-02T11:25:45Z,42.805,6.029,13.3027,4.60024,2470.413,2021-6-02T13:26:57Z
2021-06-02T11:28:48Z,42.805,6.029,13.3036,4.60024,2470.413,2021-6-02T13:30:00Z
2021-06-02T11:31:51Z,42.805,6.029,13.3055,4.60029,2470.427,2021-6-02T13:33:03Z
2021-06-02T11:34:54Z,42.805,6.029,13.3054,4.60067,2470.427,2021-6-02T13:36:07Z
2021-06-02T11:37:57Z,42.805,6.029,13.3043,4.60022,2470.427,2021-6-02T13:39:10Z
2021-06-02T11:41:00Z,42.805,6.029,13.3050,4.60044,2470.39,2021-6-02T13:42:13Z
2021-06-02T11:44:03Z,42.805,6.029,13.3051,4.60039,2470.404,2021-6-02T13:45:16Z
2021-06-02T11:47:07Z,42.805,6.029,13.3058,4.60061,2470.404,2021-6-02T13:48:19Z
2021-06-02T11:50:10Z,42.805,6.029,13.3058,4.60026,2470.404,2021-6-02T13:51:22Z
2021-06-02T11:53:13Z,42.805,6.029,13.3063,4.60059,2470.404,2021-6-02T13:54:25Z
2021-06-02T11:56:16Z,42.805,6.029,13.3048,4.60039,2470.413,2021-6-02T13:57:28Z
2021-06-02T11:59:19Z,42.805,6.029,13.3072,4.60049,2470.427,2021-6-02T14:00:32Z
2021-06-02T12:02:22Z,42.805,6.029,13.3044,4.60042,2470.39,2021-6-02T14:03:35Z
2021-06-02T12:05:25Z,42.805,6.029,13.3072,4.60023,2470.38,2021-6-02T14:06:38Z
2021-06-02T12:08:28Z,42.805,6.029,13.3058,4.60027,2470.39,2021-6-02T14:09:41Z
2021-06-02T12:11:32Z,42.805,6.029,13.3044,4.60032,2470.427,2021-6-02T14:12:44Z
2021-06-02T12:14:35Z,42.805,6.029,13.3037,4.60031,2470.39,2021-6-02T14:15:47Z
2021-06-02T12:17:38Z,42.805,6.029,13.3038,4.60040,2470.427,2021-6-02T14:18:50Z
2021-06-02T12:20:41Z,42.805,6.029,13.3060,4.60035,2470.427,2021-6-02T14:21:53Z
2021-06-02T12:23:44Z,42.805,6.029,13.3033,4.60038,2470.413,2021-6-02T14:24:57Z
2021-06-02T12:26:47Z,42.805,6.029,13.3057,4.60033,2470.39,2021-6-02T14:28:00Z
2021-06-02T12:29:50Z,42.805,6.029,13.3049,4.60024,2470.437,2021-6-02T14:31:03Z
2021-06-02T12:32:53Z,42.805,6.029,13.3058,4.60051,2470.39,2021-6-02T14:34:06Z
2021-06-02T12:35:57Z,42.805,6.029,13.3053,4.60037,2470.413,2021-6-02T14:37:09Z
2021-06-02T12:39:00Z,42.805,6.029,13.3046,4.60042,2470.427,2021-6-02T14:40:12Z
2021-06-02T12:42:03Z,42.805,6.029,13.3065,4.60033,2470.474,2021-6-02T14:43:15Z
2021-06-02T12:45:06Z,42.805,6.029,13.3077,4.60039,2470.413,2021-6-02T14:46:18Z
2021-06-02T12:48:09Z,42.805,6.029,13.3073,4.60037,2470.427,2021-6-02T14:49:22Z
2021-06-02T12:51:12Z,42.805,6.029,13.3069,4.60043,2470.404,2021-6-02T14:52:25Z
2021-06-02T12:54:15Z,42.805,6.029,13.3069,4.60033,2470.437,2021-6-02T14:55:28Z
2021-06-02T12:57:18Z,42.805,6.029,13.3063,4.60043,2470.404,2021-6-02T14:58:31Z
2021-06-02T13:00:22Z,42.805,6.029,13.3055,4.60037,2470.427,2021-6-02T15:01:34Z
2021-06-02T13:03:25Z,42.805,6.029,13.3063,4.60033,2470.45,2021-6-02T15:04:37Z
2021-06-02T13:06:28Z,42.805,6.029,13.3058,4.60036,2470.413,2021-6-02T15:07:40Z
2021-06-02T13:09:31Z,42.805,6.029,13.3058,4.60026,2470.474,2021-6-02T15:10:43Z
2021-06-02T13:12:34Z,42.805,6.029,13.3043,4.60036,2470.427,2021-6-02T15:13:47Z
2021-06-02T13:15:37Z,42.805,6.029,13.3056,4.60026,2470.427,2021-6-02T15:16:50Z
2021-06-02T13:18:40Z,42.805,6.029,13.3049,4.60038,2470.427,2021-6-02T15:19:53Z
2021-06-02T13:21:43Z,42.805,6.029,13.3032,4.60045,2470.427,2021-6-02T15:22:56Z
2021-06-02T13:24:47Z,42.805,6.029,13.3051,4.60026,2470.437,2021-6-02T15:25:59Z
2021-06-02T13:27:50Z,42.805,6.029,13.3058,4.60084,2470.45,2021-6-02T15:29:02Z
2021-06-02T13:30:53Z,42.805,6.029,13.3034,4.60028,2470.413,2021-6-02T15:32:05Z
2021-06-02T13:33:56Z,42.805,6.029,13.3037,4.60025,2470.427,2021-6-02T15:35:08Z
2021-06-02T13:36:59Z,42.805,6.029,13.3038,4.60029,2470.39,2021-6-02T15:38:12Z
2021-06-02T13:40:02Z,42.805,6.029,13.3037,4.60035,2470.427,2021-6-02T15:41:15Z
2021-06-02T13:43:05Z,42.805,6.029,13.3034,4.60036,2470.413,2021-6-02T15:44:18Z
2021-06-02T13:46:08Z,42.805,6.029,13.3040,4.60033,2470.427,2021-6-02T15:47:21Z
2021-06-02T13:49:12Z,42.805,6.029,13.3050,4.60026,2470.39,2021-6-02T15:50:24Z
2021-06-02T13:52:15Z,42.805,6.029,13.3059,4.60026,2470.413,2021-6-02T15:53:27Z
2021-06-02T13:55:18Z,42.805,6.029,13.3035,4.60025,2470.437,2021-6-02T15:56:30Z
2021-06-02T13:58:21Z,42.805,6.029,13.3032,4.60034,2470.427,2021-6-02T15:59:33Z
2021-06-02T14:01:24Z,42.805,6.029,13.3043,4.60024,2470.413,2021-6-02T16:02:37Z
2021-06-02T14:04:27Z,42.805,6.029,13.3022,4.60025,2470.413,2021-6-02T16:05:40Z
2021-06-02T14:07:30Z,42.805,6.029,13.3017,4.60021,2470.45,2021-6-02T16:08:43Z
2021-06-02T14:10:33Z,42.805,6.029,13.3036,4.60024,2470.404,2021-6-02T16:11:46Z
2021-06-02T14:13:37Z,42.805,6.029,13.3024,4.60018,2470.427,2021-6-02T16:14:49Z
2021-06-02T14:16:40Z,42.805,6.029,13.3019,4.60026,2470.404,2021-6-02T16:17:52Z
2021-06-02T14:19:43Z,42.805,6.029,13.3029,4.60024,2470.427,2021-6-02T16:20:55Z
2021-06-02T14:22:46Z,42.805,6.029,13.3033,4.60024,2470.437,2021-6-02T16:23:58Z
2021-06-02T14:25:49Z,42.805,6.029,13.3028,4.60026,2470.427,2021-6-02T16:27:02Z
2021-06-02T14:28:52Z,42.805,6.029,13.3025,4.60033,2470.427,2021-6-02T16:30:05Z
2021-06-02T14:31:55Z,42.805,6.029,13.3022,4.60026,2470.46,2021-6-02T16:33:08Z
2021-06-02T14:34:58Z,42.805,6.029,13.3023,4.60020,2470.413,2021-6-02T16:36:11Z
2021-06-02T14:38:02Z,42.805,6.029,13.3021,4.60021,2470.45,2021-6-02T16:39:14Z
2021-06-02T14:41:05Z,42.805,6.029,13.3019,4.60019,2470.39,2021-6-02T16:42:17Z
2021-06-02T14:44:08Z,42.805,6.029,13.3019,4.60032,2470.404,2021-6-02T16:45:20Z
2021-06-02T14:47:11Z,42.805,6.029,13.3019,4.60026,2470.437,2021-6-02T16:48:23Z
2021-06-02T14:50:14Z,42.805,6.029,13.3021,4.60029,2470.437,2021-6-02T16:51:27Z
2021-06-02T14:53:17Z,42.805,6.029,13.3019,4.60014,2470.427,2021-6-02T16:54:30Z
2021-06-02T14:56:20Z,42.805,6.029,13.3022,4.60020,2470.437,2021-6-02T16:57:33Z
2021-06-02T14:59:23Z,42.805,6.029,13.3028,4.60019,2470.39,2021-6-02T17:00:36Z
2021-06-02T15:02:27Z,42.805,6.029,13.3017,4.60016,2470.45,2021-6-02T17:03:39Z
2021-06-02T15:05:30Z,42.805,6.029,13.3014,4.60024,2470.427,2021-6-02T17:06:42Z
2021-06-02T15:08:33Z,42.805,6.029,13.3013,4.60019,2470.427,2021-6-02T17:09:45Z
2021-06-02T15:11:36Z,42.805,6.029,13.3029,4.60021,2470.427,2021-6-02T17:12:48Z
2021-06-02T15:14:39Z,42.805,6.029,13.3024,4.60026,2470.45,2021-6-02T17:15:51Z